Location: Camp Crooked Creek
(37.9149°N, 85.6607°W)
Time: 22:58:52
(UTC-04:00)

Amateur Radio Satellites - All Passes

Search period start: 26 August 2016 22:28
Search period end: 27 August 2016 22:28
Location: Camp Crooked Creek, 37.9149°N, 85.6607°W

Satellite Date Start Highest point End Downlink Frequencies (MHz)
Time Altitude Azimuth
UWE-3 26 Aug 22:30:07 22:34:19 35° 262° (W) 22:38:29 435.000/436.395/437.385
CUBEBUG 2 26 Aug 22:30:34 22:34:24 24° 265° (W) 22:38:11 437.445
M-CUBED/EXP-1 PRIME 26 Aug 22:32:05 22:35:02 17° 60° (ENE) 22:37:58 437.505
PRISM 26 Aug 22:33:57 22:38:10 87° 105° (ESE) 22:42:20 437.425
ZACube-1 26 Aug 22:47:21 22:51:27 34° 263° (W) 22:55:29 437.345
AIST 2 26 Aug 22:49:48 22:54:00 88° 241° (WSW) 22:58:11 435.215
AIST 1 26 Aug 22:51:47 22:54:29 16° 274° (W) 22:57:10
PCSat 26 Aug 22:53:51 22:59:14 65° 246° (WSW) 23:04:34 145.827
UNISAT 6 26 Aug 23:03:59 23:06:45 17° 93° (E) 23:09:30 437.425
VELOX 1 26 Aug 23:32:47 23:34:45 13° 64° (ENE) 23:36:43 145.980
SO-50 26 Aug 23:33:49 23:36:09 14° 108° (ESE) 23:38:30 436.795
Cosmos 2499 26 Aug 23:34:04 23:39:40 25° 71° (ENE) 23:45:17 435.465 / 435.565
CUBEBUG 1 26 Aug 23:36:41 23:39:30 17° 66° (ENE) 23:42:21 437.445
DELFI C3 26 Aug 23:37:32 23:40:25 20° 265° (W) 23:43:20 145.870
GONETS M04 26 Aug 23:39:39 23:47:57 42° 75° (ENE) 23:56:10
ANTELSAT 26 Aug 23:39:56 23:44:02 43° 99° (E) 23:48:04 437.575/2403.000
HUMSAT D 26 Aug 23:43:13 23:47:06 38° 262° (W) 23:50:59 437.325/437.525
DX 1 26 Aug 23:53:13 23:55:36 14° 65° (ENE) 23:57:58 434.975-435.025
AUBIESAT-1 26 Aug 23:59:42 00:04:17 75° 253° (WSW) 00:08:57 437.475
SPROUT 27 Aug 00:00:28 00:02:08 12° 64° (ENE) 00:03:49 437.525
M-CUBED/EXP-1 PRIME 27 Aug 00:04:30 00:09:03 55° 256° (WSW) 00:13:41 437.505
CUSAT 1 27 Aug 00:05:45 00:07:57 21° 89° (E) 00:10:28 437.405
ESTCUBE 1 27 Aug 00:06:16 00:10:38 56° 74° (ENE) 00:15:02 437.505/2401.250
TIGRISAT 27 Aug 00:11:04 00:15:22 84° 282° (WNW) 00:19:36 435.000
AISAT 27 Aug 00:19:02 00:23:14 43° 72° (ENE) 00:27:28 437.250
JAS-2 27 Aug 00:25:35 00:29:47 16° 91° (E) 00:34:09 435.910
DUCHIFAT 1 27 Aug 00:29:12 00:32:04 18° 94° (E) 00:34:56 145.980
QB50P2 27 Aug 00:29:59 00:33:19 22° 95° (E) 00:36:38 145.880/145.840
POLYITAN 1 27 Aug 00:32:29 00:35:51 23° 95° (E) 00:39:10 437.675
UKube-1 27 Aug 00:34:01 00:37:48 31° 70° (ENE) 00:41:38 .
UNISAT 6 27 Aug 00:39:40 00:43:36 36° 288° (WNW) 00:47:29 437.425
NANOSAT C BR1 27 Aug 00:41:54 00:45:30 27° 96° (E) 00:49:04 145.865
50 SAT 27 Aug 00:43:47 00:47:21 81° 77° (ENE) 00:50:57 437.505
DANDE 27 Aug 00:53:19 00:55:15 19° 93° (E) 00:57:13 436.750
VELOX 1 27 Aug 01:06:20 01:10:41 58° 259° (W) 01:15:05 145.980
O/OREOS (USA 219) 27 Aug 01:10:33 01:15:10 85° 70° (ENE) 01:19:45 437.305
SO-50 27 Aug 01:11:15 01:16:05 66° 303° (WNW) 01:20:54 436.795
CUBEBUG 1 27 Aug 01:11:18 01:15:26 41° 261° (W) 01:19:38 437.445
ANTELSAT 27 Aug 01:17:56 01:20:21 15° 294° (WNW) 01:22:45 437.575/2403.000
QB50P1 27 Aug 01:24:52 01:29:07 84° 283° (WNW) 01:33:19 145.935-145.965
Cosmos 2499 27 Aug 01:26:18 01:33:05 51° 269° (W) 01:39:56 435.465 / 435.565
DX 1 27 Aug 01:27:07 01:31:20 48° 260° (W) 01:35:36 434.975-435.025
BUGSAT 1 27 Aug 01:27:51 01:31:39 35° 98° (E) 01:35:23 437.445
SPROUT 27 Aug 01:33:20 01:37:33 57° 259° (W) 01:41:50 437.525
POPSAT HIP 1 27 Aug 01:34:51 01:39:02 65° 285° (WNW) 01:43:10 437.405
GONETS M04 27 Aug 01:36:37 01:44:38 40° 273° (W) 01:52:38
ESTCUBE 1 27 Aug 01:46:01 01:47:46 12° 269° (W) 01:49:31 437.505/2401.250
PHONESAT 2.4 27 Aug 01:51:37 01:52:30 11° 145° (SE) 01:53:23 2401.200-2431.200
TISAT 1 27 Aug 01:55:57 02:00:04 51° 74° (ENE) 02:04:12 437.305
AISAT 27 Aug 01:57:11 01:59:53 16° 267° (W) 02:02:35 437.250
Oscar 19 27 Aug 02:00:35 02:03:39 16° 92° (E) 02:06:40 437.125/150
DUCHIFAT 1 27 Aug 02:04:04 02:07:50 33° 289° (WNW) 02:11:34 145.980
QB50P2 27 Aug 02:05:32 02:09:04 27° 290° (WNW) 02:12:36 145.880/145.840
ITUPSAT 1 27 Aug 02:06:02 02:08:16 13° 63° (ENE) 02:10:30 437.325
RS-15 27 Aug 02:06:53 02:17:58 60° 112° (ESE) 02:29:41 29.354- 29.394
POLYITAN 1 27 Aug 02:08:04 02:11:35 26° 290° (WNW) 02:15:05 437.675
JAS-2 27 Aug 02:08:22 02:15:14 84° 284° (WNW) 02:22:50 435.910
UKube-1 27 Aug 02:10:37 02:13:51 21° 265° (W) 02:17:07 .
NANOSAT C BR1 27 Aug 02:17:49 02:21:05 22° 291° (WNW) 02:24:19 145.865
SWISSCUBE 27 Aug 02:37:22 02:41:32 31° 69° (ENE) 02:45:42 437.505
BEESAT 27 Aug 02:54:15 02:58:43 42° 71° (ENE) 03:03:12 436.000
SO-50 27 Aug 02:56:37 02:57:27 10° 321° (NW) 02:58:18 436.795
Gurwin Techsat 1B 27 Aug 03:02:23 03:06:58 29° 96° (E) 03:11:31 435.225
BUGSAT 1 27 Aug 03:04:02 03:06:44 17° 293° (WNW) 03:09:23 437.445
PHONESAT 2.4 27 Aug 03:25:28 03:28:26 58° 158° (SSE) 03:31:23 2401.200-2431.200
TISAT 1 27 Aug 03:34:21 03:35:59 12° 268° (W) 03:37:37 437.305
Oscar 19 27 Aug 03:38:12 03:43:18 57° 287° (WNW) 03:48:22 437.125/150
ITUPSAT 1 27 Aug 03:40:49 03:45:32 63° 259° (WSW) 03:50:17 437.325
JAS-2 27 Aug 03:55:49 03:59:28 15° 300° (WNW) 04:03:17 435.910
AO-7 27 Aug 04:05:37 04:11:24 20° 93° (E) 04:17:08 29.400- 29.500
SWISSCUBE 27 Aug 04:15:28 04:19:18 24° 264° (W) 04:23:10 437.505
RS-15 27 Aug 04:20:02 04:30:54 43° 315° (NW) 04:42:22 29.354- 29.394
BEESAT 27 Aug 04:33:25 04:36:39 18° 266° (W) 04:39:54 436.000
Gurwin Techsat 1B 27 Aug 04:42:10 04:46:52 33° 291° (WNW) 04:51:32 435.225
ITAMSAT 1 27 Aug 04:50:20 04:55:33 89° 282° (WNW) 05:00:43 435.822/435.867
MOZHAYETS 4 27 Aug 04:52:16 04:56:50 79° 258° (WSW) 05:01:25
KKS-1 27 Aug 04:52:25 04:56:55 84° 73° (ENE) 05:01:26 437.445
PHONESAT 2.4 27 Aug 05:01:54 05:04:50 51° 355° (N) 05:07:45 2401.200-2431.200
AO-85 27 Aug 05:11:48 05:14:31 14° 108° (ESE) 05:17:12 145.980
Cosmos 2491 27 Aug 05:15:46 05:22:44 25° 68° (ENE) 05:29:39 435.465 / 435.565
STARS 27 Aug 05:30:34 05:35:00 76° 258° (WSW) 05:39:27 437.465
AO-7 27 Aug 05:56:34 06:04:53 78° 290° (WNW) 06:13:08 29.400- 29.500
HORYU 2 27 Aug 06:08:02 06:11:49 27° 97° (E) 06:15:32 437.375
CUBESAT XI-V 27 Aug 06:10:06 06:14:42 85° 75° (ENE) 06:19:20 437.345
BRITE-PL 27 Aug 06:11:07 06:14:31 16° 90° (E) 06:17:52 437.365/2234.400
YUBILEINY 27 Aug 06:28:00 06:35:25 32° 84° (E) 06:42:50 435.215
ITAMSAT 1 27 Aug 06:33:14 06:34:12 10° 301° (WNW) 06:35:09 435.822/435.867
PHONESAT 2.4 27 Aug 06:38:24 06:41:22 64° 10° (N) 06:44:21 2401.200-2431.200
RS-15 27 Aug 06:40:11 06:48:03 19° 348° (NNW) 06:56:06 29.354- 29.394
AO-85 27 Aug 06:49:11 06:54:30 72° 302° (WNW) 06:59:35 145.980
LilacSat-2 27 Aug 06:54:19 06:55:35 11° 92° (E) 06:56:50 437.200
Cosmos 2504 27 Aug 07:10:51 07:16:20 19° 82° (E) 07:21:36 435.465 / 435.565
Cosmos 2491 27 Aug 07:11:31 07:20:14 67° 268° (W) 07:28:57 435.465 / 435.565
Cubesat XI-IV 27 Aug 07:13:31 07:17:51 25° 95° (E) 07:22:10 437.490
STRAND 1 27 Aug 07:13:32 07:17:27 23° 66° (ENE) 07:21:22 437.568
CUTE-I 27 Aug 07:25:17 07:30:03 33° 97° (E) 07:34:48 437.470
GOMX 1 27 Aug 07:27:49 07:32:49 38° 96° (E) 07:37:35 467.674
NOAA 15 27 Aug 07:28:40 07:33:47 46° 100° (E) 07:38:52 137.62
DOVE 4 27 Aug 07:38:55 07:42:34 20° 92° (E) 07:46:05 437.250
HORYU 2 27 Aug 07:44:39 07:48:14 25° 292° (WNW) 07:51:48 437.375
BRITE-PL 27 Aug 07:47:44 07:53:24 66° 286° (WNW) 07:58:55 437.365/2234.400
AO-7 27 Aug 07:51:37 07:56:19 17° 309° (NW) 08:01:00 29.400- 29.500
NOAA 18 27 Aug 07:59:09 08:04:34 60° 101° (ESE) 08:09:56 137.9125
PHONESAT 2.4 27 Aug 08:14:54 08:17:38 32° 207° (SSW) 08:20:21 2401.200-2431.200
YUBILEINY 27 Aug 08:23:11 08:31:44 53° 282° (WNW) 08:40:21 435.215
CINEMA 3 27 Aug 08:25:19 08:27:44 14° 91° (E) 08:30:06 145.822/145.860
LilacSat-2 27 Aug 08:26:31 08:30:04 40° 286° (WNW) 08:33:35 437.200
AO-85 27 Aug 08:33:48 08:35:45 12° 319° (NW) 08:37:40 145.980
HO-68 27 Aug 08:43:01 08:48:52 26° 95° (E) 08:54:40 435.675
STRAND 1 27 Aug 08:51:35 08:56:21 39° 261° (W) 09:01:08 437.568
Cubesat XI-IV 27 Aug 08:53:06 08:57:58 37° 291° (WNW) 09:02:49 437.490
RS-15 27 Aug 08:57:52 09:07:08 23° 25° (NNE) 09:16:23 29.354- 29.394
SEEDS 27 Aug 08:59:57 09:02:51 18° 94° (E) 09:05:45 437.485
Cosmos 2504 27 Aug 09:00:19 09:08:53 77° 278° (W) 09:16:53 435.465 / 435.565
CUTE-I 27 Aug 09:05:28 09:09:58 29° 293° (WNW) 09:14:27 437.470
GOMX 1 27 Aug 09:06:14 09:10:38 26° 293° (WNW) 09:14:52 467.674
NOAA 15 27 Aug 09:09:16 09:13:12 21° 295° (WNW) 09:17:08 137.62
DOVE 4 27 Aug 09:15:43 09:20:26 40° 289° (WNW) 09:24:52 437.250
ISS 27 Aug 09:17:56 09:20:58 35° 134° (SE) 09:24:00 145.825
CANX-2 27 Aug 09:19:13 09:23:21 52° 99° (E) 09:27:30 2200.000
PRISM 27 Aug 09:21:28 09:25:22 47° 73° (ENE) 09:29:20 437.425
CUTE 1.7 + AOD 2 27 Aug 09:25:26 09:29:35 53° 100° (E) 09:33:44 437.475
AAUSAT CUBESAT 2 27 Aug 09:32:31 09:35:50 23° 95° (E) 09:39:08 437.432
COMPASS 1 27 Aug 09:39:33 09:43:24 35° 98° (E) 09:47:15 437.405
AIST 1 27 Aug 09:40:57 09:44:26 24° 89° (E) 09:47:57
NOAA 18 27 Aug 09:41:11 09:44:42 18° 298° (WNW) 09:48:11 137.9125
SO-50 27 Aug 09:44:31 09:49:06 67° 58° (ENE) 09:53:33 436.795
CINEMA 3 27 Aug 10:00:51 10:05:10 45° 287° (WNW) 10:09:17 145.822/145.860
UNISAT 6 27 Aug 10:01:44 10:04:10 14° 65° (ENE) 10:06:33 437.425
Oscar 11 27 Aug 10:09:44 10:13:12 23° 95° (E) 10:16:40 145.826/435.025
FUNcube-1 27 Aug 10:16:24 10:19:49 25° 96° (E) 10:23:13 145.935
UWE-3 27 Aug 10:21:16 10:25:21 50° 99° (E) 10:29:22 435.000/436.395/437.385
CUBEBUG 2 27 Aug 10:22:22 10:26:38 83° 102° (ESE) 10:30:46 437.445
HO-68 27 Aug 10:29:55 10:36:51 54° 291° (WNW) 10:43:45 435.675
SEEDS 27 Aug 10:34:50 10:38:37 33° 288° (WNW) 10:42:23 437.485
CUSAT 1 27 Aug 10:36:27 10:42:12 32° 75° (ENE) 10:48:49 437.405
ANTELSAT 27 Aug 10:36:46 10:40:53 33° 71° (ENE) 10:44:57 437.575/2403.000
ZACube-1 27 Aug 10:37:06 10:41:08 47° 99° (E) 10:45:07 437.345
BEESAT 2 27 Aug 10:38:30 10:41:57 30° 114° (ESE) 10:45:26 435.950
ISS 27 Aug 10:54:43 10:57:29 24° 331° (NNW) 11:00:15 145.825
CANX-2 27 Aug 10:56:54 10:58:44 13° 295° (WNW) 11:00:36 2200.000
BEESAT 3 27 Aug 10:57:13 11:01:07 76° 302° (WNW) 11:05:03 437.485
PRISM 27 Aug 10:59:19 11:00:56 12° 268° (W) 11:02:32 437.425
Cosmos 2504 27 Aug 10:59:49 11:03:26 13° 296° (WNW) 11:06:59 435.465 / 435.565
CUTE 1.7 + AOD 2 27 Aug 11:03:10 11:04:57 12° 295° (WNW) 11:06:44 437.475
TIGRISAT 27 Aug 11:07:19 11:11:55 68° 75° (ENE) 11:16:26 435.000
AAUSAT CUBESAT 2 27 Aug 11:07:47 11:11:14 26° 290° (WNW) 11:14:42 437.432
RS-15 27 Aug 11:10:35 11:22:53 63° 53° (NE) 11:34:55 29.354- 29.394
DELFI C3 27 Aug 11:15:24 11:19:21 55° 100° (E) 11:23:17 145.870
COMPASS 1 27 Aug 11:15:54 11:18:40 17° 292° (WNW) 11:21:26 437.405
AIST 1 27 Aug 11:18:21 11:21:55 24° 285° (WNW) 11:25:31
DUCHIFAT 1 27 Aug 11:20:56 11:22:24 12° 64° (ENE) 11:23:53 145.980
QB50P2 27 Aug 11:21:52 11:24:15 15° 66° (ENE) 11:26:39 145.880/145.840
POLYITAN 1 27 Aug 11:24:20 11:26:46 15° 66° (ENE) 11:29:13 437.675
SO-50 27 Aug 11:27:36 11:28:55 11° 253° (WSW) 11:30:13 436.795
DANDE 27 Aug 11:28:05 11:32:56 30° 77° (ENE) 11:38:55 436.750
HUMSAT D 27 Aug 11:28:07 11:31:51 34° 98° (E) 11:35:35 437.325/437.525
NANOSAT C BR1 27 Aug 11:33:00 11:35:49 17° 67° (ENE) 11:38:38 145.865
UNISAT 6 27 Aug 11:35:53 11:40:25 54° 260° (W) 11:44:53 437.425
Oscar 11 27 Aug 11:45:39 11:49:16 27° 290° (WNW) 11:52:53 145.826/435.025
M-CUBED/EXP-1 PRIME 27 Aug 11:48:37 11:49:43 11° 94° (E) 11:50:48 437.505
PCSat 27 Aug 11:51:55 11:55:52 21° 106° (ESE) 11:59:49 145.827
FUNcube-1 27 Aug 11:52:40 11:55:57 23° 291° (WNW) 11:59:12 145.935
UWE-3 27 Aug 11:59:38 12:01:20 12° 295° (WNW) 12:03:02 435.000/436.395/437.385
ESTCUBE 1 27 Aug 12:02:06 12:04:22 14° 92° (E) 12:06:37 437.505/2401.250
Cosmos 2499 27 Aug 12:09:03 12:15:04 23° 84° (E) 12:20:47 435.465 / 435.565
ANTELSAT 27 Aug 12:14:03 12:17:37 22° 265° (W) 12:21:08 437.575/2403.000
ZACube-1 27 Aug 12:15:07 12:16:59 13° 295° (WNW) 12:18:50 437.345
QB50P1 27 Aug 12:15:10 12:19:20 55° 74° (ENE) 12:23:32 145.935-145.965
BUGSAT 1 27 Aug 12:16:10 12:19:21 21° 68° (ENE) 12:22:33 437.445
BEESAT 2 27 Aug 12:16:41 12:19:47 22° 310° (NW) 12:22:56 435.950
CUSAT 1 27 Aug 12:17:58 12:24:13 47° 266° (W) 12:31:32 437.405
JAS-2 27 Aug 12:20:40 12:25:09 30° 67° (ENE) 12:29:51 435.910
POPSAT HIP 1 27 Aug 12:25:02 12:29:18 72° 76° (ENE) 12:33:35 437.405
GONETS M04 27 Aug 12:38:12 12:46:31 51° 89° (E) 12:54:54
AIST 2 27 Aug 12:45:58 12:49:29 28° 113° (ESE) 12:53:02 435.215
TIGRISAT 27 Aug 12:48:17 12:48:58 10° 269° (W) 12:49:39 435.000
DELFI C3 27 Aug 12:52:46 12:53:41 11° 295° (WNW) 12:54:37 145.870
DUCHIFAT 1 27 Aug 12:53:22 12:57:34 58° 259° (W) 13:01:47 145.980
QB50P2 27 Aug 12:55:33 12:59:39 45° 261° (W) 13:03:47 145.880/145.840
POLYITAN 1 27 Aug 12:58:05 13:02:11 44° 261° (W) 13:06:17 437.675
JUGNU 27 Aug 12:58:24 13:00:37 12° 175° (S) 13:02:51 437.505
VELOX 1 27 Aug 12:58:24 13:02:19 29° 97° (E) 13:06:11 145.980
CUBEBUG 1 27 Aug 13:01:26 13:05:37 40° 99° (E) 13:09:45 437.445
HUMSAT D 27 Aug 13:04:35 13:07:12 17° 293° (WNW) 13:09:49 437.325/437.525
NANOSAT C BR1 27 Aug 13:07:17 13:11:14 37° 262° (W) 13:15:13 145.865
DANDE 27 Aug 13:10:26 13:15:37 39° 265° (W) 13:22:07 436.750
AUBIESAT-1 27 Aug 13:15:14 13:19:17 72° 289° (WNW) 13:22:59 437.475
Oscar 19 27 Aug 13:15:39 13:19:20 20° 65° (ENE) 13:23:02 437.125/150
DX 1 27 Aug 13:17:08 13:21:03 31° 97° (E) 13:24:56 434.975-435.025
M-CUBED/EXP-1 PRIME 27 Aug 13:20:39 13:24:38 49° 292° (WNW) 13:28:18 437.505
SPROUT 27 Aug 13:21:22 13:24:59 26° 96° (E) 13:28:33 437.525
RS-15 27 Aug 13:23:53 13:34:44 39° 255° (WSW) 13:45:24 29.354- 29.394
PCSat 27 Aug 13:33:37 13:38:51 49° 302° (WNW) 13:44:07 145.827
ESTCUBE 1 27 Aug 13:37:02 13:41:26 51° 287° (WNW) 13:45:50 437.505/2401.250
O/OREOS (USA 219) 27 Aug 13:45:00 13:46:35 12° 98° (E) 13:48:09 437.305
AISAT 27 Aug 13:46:56 13:51:25 73° 284° (WNW) 13:55:49 437.250
50 SAT 27 Aug 13:47:02 13:50:38 61° 284° (WNW) 13:54:14 437.505
BUGSAT 1 27 Aug 13:50:46 13:54:31 30° 263° (W) 13:58:18 437.445
QB50P1 27 Aug 13:54:11 13:55:25 11° 269° (W) 13:56:40 145.935-145.965
UKube-1 27 Aug 13:58:02 14:02:23 73° 103° (ESE) 14:06:42 .
Cosmos 2499 27 Aug 13:59:25 14:07:35 63° 279° (W) 14:15:11 435.465 / 435.565
JAS-2 27 Aug 14:05:51 14:10:15 28° 265° (W) 14:14:50 435.910
Gurwin Techsat 1B 27 Aug 14:21:38 14:26:31 39° 70° (ENE) 14:31:26 435.225
AIST 2 27 Aug 14:24:32 14:27:55 24° 309° (NW) 14:31:21 435.215
ITAMSAT 1 27 Aug 14:30:16 14:32:52 14° 62° (ENE) 14:35:28 435.822/435.867
VELOX 1 27 Aug 14:35:05 14:38:37 23° 292° (WNW) 14:42:08 145.980
SRMSAT 27 Aug 14:35:52 14:36:51 10° 171° (S) 14:37:51 437.500
GONETS M04 27 Aug 14:35:55 14:43:33 33° 288° (WNW) 14:51:19
CUBEBUG 1 27 Aug 14:38:38 14:41:33 18° 294° (WNW) 14:44:28 437.445
JUGNU 27 Aug 14:46:33 14:48:45 12° 185° (S) 14:50:57 437.505
Oscar 19 27 Aug 14:53:20 14:58:16 47° 261° (W) 15:03:17 437.125/150
DX 1 27 Aug 14:53:42 14:57:01 21° 293° (WNW) 15:00:20 434.975-435.025
SPROUT 27 Aug 14:57:22 15:00:47 24° 291° (WNW) 15:04:11 437.525
BEESAT 27 Aug 14:58:06 14:59:55 12° 91° (E) 15:01:43 436.000
AO-7 27 Aug 15:02:51 15:09:28 27° 57° (ENE) 15:16:04 29.400- 29.500
TISAT 1 27 Aug 15:16:57 15:21:08 68° 285° (WNW) 15:25:16 437.305
O/OREOS (USA 219) 27 Aug 15:20:59 15:25:23 57° 293° (WNW) 15:29:51 437.305
AO-85 27 Aug 15:23:20 15:27:30 56° 56° (NE) 15:31:23 145.980
ITUPSAT 1 27 Aug 15:43:09 15:47:33 37° 98° (E) 15:51:57 437.325
ISS 27 Aug 15:47:14 15:50:05 26° 30° (NNE) 15:52:55 145.825
Gurwin Techsat 1B 27 Aug 16:02:19 16:06:33 24° 265° (W) 16:10:48 435.225
ITAMSAT 1 27 Aug 16:06:33 16:11:42 70° 258° (WSW) 16:16:53 435.822/435.867
SWISSCUBE 27 Aug 16:16:08 16:20:55 85° 281° (W) 16:25:41 437.505
SRMSAT 27 Aug 16:22:37 16:25:08 13° 181° (S) 16:27:38 437.500
BEESAT 27 Aug 16:33:22 16:38:05 63° 286° (WNW) 16:42:46 436.000
YUBILEINY 27 Aug 16:41:56 16:45:35 13° 60° (ENE) 16:49:12 435.215
KKS-1 27 Aug 16:46:10 16:49:14 18° 94° (E) 16:52:18 437.445
MOZHAYETS 4 27 Aug 16:49:23 16:53:17 27° 96° (E) 16:57:10
AO-7 27 Aug 16:53:14 17:01:32 68° 255° (WSW) 17:09:53 29.400- 29.500
HORYU 2 27 Aug 17:04:42 17:08:05 21° 67° (ENE) 17:11:27 437.375
AO-85 27 Aug 17:06:38 17:07:15 10° 254° (WSW) 17:07:53 145.980
BRITE-PL 27 Aug 17:21:07 17:23:28 13° 61° (ENE) 17:25:55 437.365/2234.400
ITUPSAT 1 27 Aug 17:21:33 17:25:08 22° 293° (WNW) 17:28:43 437.325
STARS 27 Aug 17:22:26 17:25:50 22° 95° (E) 17:29:11 437.465
ISS 27 Aug 17:23:35 17:26:33 31° 226° (SW) 17:29:30 145.825
NOAA 18 27 Aug 17:46:59 17:49:18 13° 59° (ENE) 17:51:38 137.9125
CUBESAT XI-V 27 Aug 18:08:53 18:12:43 24° 95° (E) 18:16:32 437.345
Cosmos 2491 27 Aug 18:15:15 18:22:25 30° 84° (E) 18:29:36 435.465 / 435.565
KKS-1 27 Aug 18:21:48 18:25:54 37° 289° (WNW) 18:29:59 437.445
MOZHAYETS 4 27 Aug 18:26:32 18:30:20 26° 291° (WNW) 18:34:07
Cubesat XI-IV 27 Aug 18:33:39 18:38:28 35° 69° (ENE) 18:43:17 437.490
GOMX 1 27 Aug 18:33:40 18:38:09 33° 69° (ENE) 18:42:52 467.674
YUBILEINY 27 Aug 18:35:15 18:44:03 73° 81° (E) 18:52:44 435.215
HORYU 2 27 Aug 18:40:25 18:44:25 32° 262° (W) 18:48:26 437.375
DOVE 4 27 Aug 18:42:17 18:45:52 19° 65° (ENE) 18:49:31 437.250
CUTE-I 27 Aug 18:45:16 18:50:20 46° 71° (ENE) 18:55:24 437.470
NOAA 15 27 Aug 18:46:55 18:52:05 62° 73° (ENE) 18:57:18 137.62
AO-7 27 Aug 18:55:01 18:55:37 10° 272° (W) 18:56:14 29.400- 29.500
Cosmos 2504 27 Aug 18:55:54 19:02:14 32° 73° (ENE) 19:08:29 435.465 / 435.565
BRITE-PL 27 Aug 18:56:27 19:01:11 69° 259° (W) 19:06:23 437.365/2234.400
STARS 27 Aug 18:58:20 19:02:11 30° 290° (WNW) 19:06:00 437.465
BEESAT 2 27 Aug 18:58:55 19:00:53 13° 45° (NE) 19:02:50 435.950
LilacSat-2 27 Aug 19:06:06 19:09:56 70° 76° (ENE) 19:13:46 437.200
HO-68 27 Aug 19:11:37 19:16:03 18° 57° (ENE) 19:20:30 435.675
BEESAT 3 27 Aug 19:16:07 19:19:45 33° 54° (NE) 19:23:21 437.485
NOAA 18 27 Aug 19:23:38 19:29:11 86° 256° (WSW) 19:34:45 137.9125
CINEMA 3 27 Aug 19:25:13 19:27:46 14° 64° (ENE) 19:30:19 145.822/145.860
CUBESAT XI-V 27 Aug 19:45:57 19:50:04 31° 290° (WNW) 19:54:11 437.345
SEEDS 27 Aug 19:52:20 19:53:04 10° 64° (ENE) 19:53:48 437.485
Cosmos 2491 27 Aug 20:10:15 20:18:42 55° 282° (WNW) 20:27:17 435.465 / 435.565
CANX-2 27 Aug 20:10:27 20:14:04 29° 71° (ENE) 20:17:43 2200.000
GOMX 1 27 Aug 20:11:54 20:16:11 28° 266° (W) 20:20:42 467.674
Cubesat XI-IV 27 Aug 20:14:05 20:18:33 27° 264° (W) 20:23:01 437.490
CUTE 1.7 + AOD 2 27 Aug 20:16:33 20:20:12 29° 71° (ENE) 20:23:50 437.475
DOVE 4 27 Aug 20:18:06 20:23:04 51° 261° (W) 20:28:14 437.250
AAUSAT CUBESAT 2 27 Aug 20:22:36 20:24:22 13° 65° (ENE) 20:26:09 437.432
CUTE-I 27 Aug 20:26:41 20:30:34 20° 266° (W) 20:34:28 437.470
COMPASS 1 27 Aug 20:29:15 20:32:13 19° 68° (ENE) 20:35:11 437.405
NOAA 15 27 Aug 20:29:25 20:32:15 15° 268° (W) 20:35:06 137.62
YUBILEINY 27 Aug 20:33:47 20:39:51 21° 280° (W) 20:45:54 435.215
BEESAT 2 27 Aug 20:35:07 20:39:05 61° 243° (WSW) 20:43:02 435.950
PCSat 27 Aug 20:41:23 20:44:16 14° 44° (NE) 20:47:08 145.827
Cosmos 2504 27 Aug 20:49:02 20:55:38 40° 271° (W) 21:02:12 435.465 / 435.565
BEESAT 3 27 Aug 20:54:24 20:57:09 18° 249° (WSW) 20:59:54 437.485
HO-68 27 Aug 20:55:38 21:02:51 86° 256° (WSW) 21:10:05 435.675
CINEMA 3 27 Aug 20:59:19 21:04:19 66° 259° (W) 21:09:18 145.822/145.860
STRAND 1 27 Aug 21:03:20 21:08:27 80° 102° (ESE) 21:13:34 437.568
Oscar 11 27 Aug 21:03:44 21:06:15 15° 66° (ENE) 21:08:48 145.826/435.025
AIST 2 27 Aug 21:09:30 21:11:45 14° 45° (NE) 21:13:59 435.215
FUNcube-1 27 Aug 21:10:39 21:13:38 18° 67° (ENE) 21:16:34 145.935
UWE-3 27 Aug 21:16:09 21:20:18 35° 72° (ENE) 21:24:22 435.000/436.395/437.385
CUBEBUG 2 27 Aug 21:17:56 21:22:32 56° 75° (ENE) 21:27:03 437.445
SEEDS 27 Aug 21:24:06 21:28:12 61° 259° (W) 21:32:20 437.485
AIST 1 27 Aug 21:26:07 21:30:31 66° 81° (E) 21:34:51
ZACube-1 27 Aug 21:30:59 21:34:57 32° 71° (ENE) 21:38:50 437.345
CANX-2 27 Aug 21:46:47 21:49:55 20° 266° (W) 21:53:05 2200.000
CUTE 1.7 + AOD 2 27 Aug 21:52:55 21:56:02 20° 266° (W) 21:59:10 437.475
AAUSAT CUBESAT 2 27 Aug 21:55:26 21:59:24 48° 261° (W) 22:03:24 437.432
DELFI C3 27 Aug 21:59:56 22:03:09 24° 70° (ENE) 22:06:22 145.870
COMPASS 1 27 Aug 22:03:55 22:07:33 30° 263° (W) 22:11:12 437.405
HUMSAT D 27 Aug 22:18:12 22:21:15 20° 69° (ENE) 22:24:18 437.325/437.525
